Home > Weather > Canton > Past weeks

Flag for USA Past Weather in Canton, Ohio, USA — Yesterday and Last 2 Weeks

Now
52 °F

Clear.


Feels Like: 52 °F
Forecast: 55 / 76 °F
Wind: 3 mph from Northwest

Location: Akron-Canton Regional Airport

Current Time: Jun 29, 2016 at 7:09:47 AM

Latest Report: Jun 29, 2016 at 5:51 AM


Visibility: 10 mi

Pressure: 30.03 "Hg

Humidity: 86%

Dew Point: 48 °F

Location of CantonLocation

Past Weather in Canton — Graph

°F

Canton Temperature Yesterday

Maximum temperature yesterday: 79 °F (at 2:51 PM)
Minimum temperature yesterday: 58 °F (at 11:51 PM)
Average temperature yesterday: 70 °F

High & Low Weather Summary for the Past Weeks

 TemperatureHumidityPressure
High89 °F (Jun 20, 3:51 PM)93% (Jun 16, 2:51 PM)30.34 "Hg (Jun 16, 2:51 PM)
Low52 °F (Jun 29, 4:51 AM)30% (Jun 18, 3:51 PM)29.63 "Hg (Jun 16, 1:51 PM)
Average73 °F60%29.99 "Hg
* Reported Jun 14 5:51 AM — Jun 29 5:51 AM, Canton, Weather by CustomWeather, © 2016

Note: Actual official high and low records may vary slightly from our data, if they occured in-between our weather recording intervals... More about our weather records

Advertising

Canton Weather History for the Previous 24 Hours

Scroll right to see more
 ConditionsComfort  
Time TempWeatherWind HumidityBarometerVisibility
5:51 AM
Wed, Jun 29
52 °FClear.3 mph86%30.03 "Hg10 mi
4:51 AM52 °FClear.5 mph86%30.03 "Hg10 mi
3:51 AM54 °FClear.5 mph83%30.03 "Hg10 mi
2:51 AM54 °FClear.3 mph86%30.02 "Hg10 mi
1:51 AM57 °FClear.No wind83%30.03 "Hg10 mi
12:51 AM57 °FPassing clouds.3 mph83%30.04 "Hg10 mi
11:51 PM
Tue, Jun 28
58 °FPassing clouds.3 mph81%30.04 "Hg10 mi
10:51 PM61 °FPassing clouds.10 mph75%30.03 "Hg10 mi
9:51 PM63 °FPassing clouds.8 mph70%30.02 "Hg10 mi
8:51 PM65 °FPassing clouds.10 mph66%30.00 "Hg10 mi
7:51 PM68 °FPassing clouds.13 mph61%30.00 "Hg10 mi
6:51 PM71 °FScattered clouds.12 mph57%29.98 "Hg10 mi
5:51 PM73 °FScattered clouds.12 mph59%29.98 "Hg10 mi
4:51 PM74 °FPartly sunny.15 mph60%29.97 "Hg10 mi
3:51 PM75 °FPartly sunny.10 mph52%29.97 "Hg10 mi
2:51 PM79 °FPartly sunny.13 mph48%29.97 "Hg10 mi
1:51 PM78 °FPartly sunny.12 mph50%29.98 "Hg10 mi
12:51 PM78 °FPartly sunny.15 mph52%29.98 "Hg10 mi
11:51 AM76 °FPartly sunny.13 mph56%29.98 "Hg10 mi
10:51 AM75 °FScattered clouds.5 mph54%29.98 "Hg10 mi
9:51 AM73 °FScattered clouds.6 mph64%29.99 "Hg10 mi
8:51 AM70 °FScattered clouds.5 mph71%29.99 "Hg10 mi
7:51 AM68 °FPassing clouds.6 mph76%29.97 "Hg10 mi
Weather by CustomWeather, © 2016

See weather overviewHow to use our weather pages